Simultaneous Nadir Overpasses (SNOs) Predictions

Prediction of SNOs between FY3D and AQUA Satellite Orbit:

Table of predicted SNOs for the next 14.0 days since TLE Epoch: 12/23/2023
Index Date (FY3D) Time (FY3D) Lat,Lon (FY3D) SZA (FY3D ) Date (AQUA) Time (AQUA) Lat,Lon (AQUA) SZA (AQUA ) Distance(km) Time Diff (sec)
1 12/23/2023 05:38:55 79.15, 75.60 103.10 12/23/2023 05:39:14 79.15, 75.68 103.09 1.69 19
2 12/23/2023 06:29:28 -78.74,-114.15 77.46 12/23/2023 06:28:27 -78.74,-114.25 77.44 2.24 61
3 12/25/2023 18:33:34 79.12,-117.81 103.03 12/25/2023 18:33:59 79.12,-117.85 103.03 0.77 25
4 12/25/2023 19:24:11 -78.85, 51.48 77.35 12/25/2023 19:23:15 -78.84, 51.52 77.34 1.12 56
5 12/28/2023 07:28:16 79.20, 47.95 103.07 12/28/2023 07:28:45 79.20, 48.05 103.04 2.21 29
6 12/28/2023 08:18:49 -78.79,-141.72 77.51 12/28/2023 08:17:58 -78.80,-141.85 77.49 2.94 51
7 12/30/2023 20:22:53 79.12,-145.05 102.82 12/30/2023 20:23:26 79.13,-145.15 102.82 2.23 33
8 12/30/2023 21:13:30 -78.84, 24.30 77.58 12/30/2023 21:12:42 -78.84, 24.23 77.56 1.65 48
9 01/02/2024 09:17:34 79.18, 20.87 102.72 01/02/2024 09:18:09 79.19, 20.82 102.72 1.27 35
10 01/02/2024 10:08:09 -78.86,-169.49 77.73 01/02/2024 10:07:23 -78.87,-169.55 77.71 1.39 46
11 01/04/2024 22:12:12 79.18,-172.74 102.49 01/04/2024 22:12:48 79.19,-172.80 102.49 1.25 36



Historial Predications of SNOs between FY3D and AQUA
